[TLELIST] Archives

 

[list_settings.list_name] Current TLEs

September 24th 2021 PST

HST 1 20580U 90037B 21266.93700494 .00000796 00000-0 37126-4 0 9992 2 20580 28.4695 133.3956 0002770 46.6885 333.3940 15.09744800526156 ISS (ZARYA) 1 25544U 98067A 21267.21567994 .00001839 00000-0 42318-4 0 9994 2 25544 51.6435 213.0833 0003460 47.4035 50.6925 15.48430119303944 CXO 1 25867U 99040B 21268.60281868 .00000748 00000-0 00000+0 0 9996 2 25867 52.6818 250.9649 8473971 227.2225 0.5883 0.37806841 21954 ____________________________________________________________________ These 2-Line ...Continue Reading

[list_settings.list_name] Current TLEs

September 23rd 2021 PST

HST 1 20580U 90037B 21265.37668113 .00000762 00000-0 35051-4 0 9998 2 20580 28.4694 143.7214 0002728 30.3938 132.3946 15.09742944525653 ISS (ZARYA) 1 25544U 98067A 21266.32270053 .00001760 00000-0 40870-4 0 9996 2 25544 51.6435 217.4974 0003478 45.0490 111.9902 15.48425701303808 CXO 1 25867U 99040B 21268.60281868 .00000748 00000-0 00000+0 0 9996 2 25867 52.6818 250.9649 8473971 227.2225 0.5883 0.37806841 21954 ____________________________________________________________________ These 2-Line ...Continue Reading

[list_settings.list_name] Current TLEs

September 22nd 2021 PST

HST 1 20580U 90037B 21264.89535856 .00000685 00000-0 30424-4 0 9994 2 20580 28.4693 146.9067 0002702 25.4709 36.1074 15.09742038525585 ISS (ZARYA) 1 25544U 98067A 21265.41710065 .00001884 00000-0 43161-4 0 9990 2 25544 51.6442 221.9729 0003477 40.6225 104.9818 15.48422570303663 CXO 1 25867U 99040B 21265.95887554 .00000688 00000-0 00000-0 0 9999 2 25867 52.7395 251.0716 8468093 227.1937 0.6776 0.37805707 10804 ____________________________________________________________________ These 2-Line ...Continue Reading

[list_settings.list_name] Current TLEs

September 21st 2021 PST

HST 1 20580U 90037B 21264.11270130 .00000679 00000-0 30028-4 0 9993 2 20580 28.4693 152.0862 0002678 17.2473 102.1000 15.09741257525726 ISS (ZARYA) 1 25544U 98067A 21264.38529174 .00001703 00000-0 39814-4 0 9994 2 25544 51.6436 227.0723 0003434 37.5378 112.6470 15.48417137303500 CXO 1 25867U 99040B 21265.95887554 .00000688 00000-0 00000-0 0 9999 2 25867 52.7395 251.0716 8468093 227.1937 0.6776 0.37805707 10804 ____________________________________________________________________ These 2-Line ...Continue Reading

[list_settings.list_name] Current TLEs

September 20th 2021 PST

HST 1 20580U 90037B 21262.91087448 .00000623 00000-0 26679-4 0 9993 2 20580 28.4693 160.0395 0002629 4.3896 49.9995 15.09739895525285 ISS (ZARYA) 1 25544U 98067A 21263.28669914 .00003142 00000-0 66459-4 0 9993 2 25544 51.6436 232.5048 0003357 32.0581 110.2065 15.48413394303337 CXO 1 25867U 99040B 21263.31488134 .00000720 00000-0 00000+0 0 9994 2 25867 52.7757 251.1561 8461965 227.1892 0.7198 0.37808221 21935 ____________________________________________________________________ These 2-Line ...Continue Reading

[list_settings.list_name] Current TLEs

September 19th 2021 PST

HST 1 20580U 90037B 21261.47649050 .00000637 00000-0 27506-4 0 9991 2 20580 28.4693 169.5321 0002596 348.9419 174.0248 15.09738591525068 ISS (ZARYA) 1 25544U 98067A 21262.19686343 .00001502 00000-0 36112-4 0 9998 2 25544 51.6434 237.8880 0003289 31.7976 151.4196 15.48407779303168 CXO 1 25867U 99040B 21263.31488134 .00000720 00000-0 00000+0 0 9994 2 25867 52.7757 251.1561 8461965 227.1892 0.7198 0.37808221 21935 ____________________________________________________________________ These 2-Line ...Continue Reading

[list_settings.list_name] Current TLEs

September 18th 2021 PST

HST 1 20580U 90037B 21261.20597003 .00000682 00000-0 30210-4 0 9998 2 20580 28.4693 171.3223 0002574 345.9629 143.7943 15.09738553525294 ISS (ZARYA) 1 25544U 98067A 21261.35064343 .00001779 00000-0 41233-4 0 9991 2 25544 51.6436 242.0716 0003232 28.8192 114.2371 15.48405694303033 CXO 1 25867U 99040B 21263.31488134 .00000720 00000-0 00000+0 0 9994 2 25867 52.7757 251.1561 8461965 227.1892 0.7198 0.37808221 21935 ____________________________________________________________________ These 2-Line ...Continue Reading

[list_settings.list_name] Current TLEs

September 17th 2021 PST

HST 1 20580U 90037B 21259.49340718 .00000732 00000-0 33254-4 0 9992 2 20580 28.4693 182.6553 0002506 326.2546 197.1735 15.09736868524760 ISS (ZARYA) 1 25544U 98067A 21260.38326868 .00002108 00000-0 47329-4 0 9995 2 25544 51.6436 246.8533 0003182 25.6729 121.4393 15.48402825302886 CXO 1 25867U 99040B 21260.67096212 .00000763 00000-0 00000-0 0 9990 2 25867 52.8139 251.2486 8457502 227.1851 0.7350 0.37810740 10795 ____________________________________________________________________ These 2-Line ...Continue Reading

[list_settings.list_name] Current TLEs

September 16th 2021 PST

HST 1 20580U 90037B 21258.22890376 .00000766 00000-0 35336-4 0 9992 2 20580 28.4693 191.0233 0002459 311.8676 165.2946 15.09735515524577 ISS (ZARYA) 1 25544U 98067A 21259.21473368 .00002068 00000-0 46608-4 0 9997 2 25544 51.6428 252.6298 0003137 21.2391 87.8773 15.48395478302700 CXO 1 25867U 99040B 21260.67096212 .00000763 00000-0 00000-0 0 9990 2 25867 52.8139 251.2486 8457502 227.1851 0.7350 0.37810740 10795 ____________________________________________________________________ These 2-Line ...Continue Reading

[list_settings.list_name] Current TLEs

September 15th 2021 PST

HST 1 20580U 90037B 21258.14516638 .00000773 00000-0 35712-4 0 9995 2 20580 28.4693 191.5775 0002457 310.8197 70.3237 15.09735456524829 ISS (ZARYA) 1 25544U 98067A 21258.38207780 .00001039 00000-0 27542-4 0 9990 2 25544 51.6437 256.7452 0003014 21.4856 123.1665 15.48391090302574 CXO 1 25867U 99040B 21258.02759137 .00000747 00000-0 00000-0 0 9990 2 25867 52.8836 251.3691 8453033 227.1682 0.8227 0.37807893 10783 ____________________________________________________________________ These 2-Line ...Continue Reading
  • This mailing list is a public mailing list - anyone may join or leave, at any time.
  • This mailing list is announce-only.

International Space Station (ISS) / Hubble Space Telescope (HST) / Chandra X-Ray Observatory Orbital Data via EMAIL

Privacy Policy:

Private list